Toronto Pearson, Ontario

4:44 PM EST on December 15, 2019 (GMT -0500)
Toronto-Pearson International

Weather History for CYYZ - May, 2019

Change the Weather History Date:

Saturday, May 4, 2019

  Actual Average Record
Temperature  
Mean Temperature 48 °F -  
Max Temperature 54 °F 66 °F 80 °F (2001)
Min Temperature 43 °F 44 °F 28 °F (2004)
Degree Days  
Heating Degree Days 16    
Moisture  
Dew Point 44 °F    
Average Humidity 89    
Maximum Humidity 94    
Minimum Humidity 74    
Precipitation  
Precipitation 0.01 in 0.09 in - ()
Sea Level Pressure  
Sea Level Pressure 29.98 in    
Wind  
Wind Speed 6 mph ()    
Max Wind Speed 10 mph    
Max Gust Speed -    
Visibility 8.4 miles    
Events Rain    
Averages and records for this station are not official NWS values.
T = Trace of Precipitation, MM = Missing Value Source: Averaged Metar Reports

Daily Weather History Graph

Daily Weather History Graph

Search for Another Location

Airport or City:

Astronomy

May. 04, 2019 Rise Set
Actual Time 6:07 AM EDT 8:24 PM EDT
Civil Twilight 5:35 AM EDT 8:56 PM EDT
Nautical Twilight 4:55 AM EDT 9:35 PM EDT
Astronomical Twilight 4:12 AM EDT 10:19 PM EDT
Moon 6:21 AM EDT (5/4) 8:09 PM EDT (5/4)
Length of Visible Light 15h 20m
Length of Day
14h 17m
Waning Crescent, 0% of the Moon is Illuminated
May 4
Waning Crescent
May 4
New
May 11
First Quarter
May 18
Full
May 26
Last Quarter

Hourly Weather History & Observations

Time (EDT) Temp. Windchill Dew Point Humidity Pressure Visibility Wind Dir Wind Speed Gust Speed Precip Events Conditions
12:34 AM 46.4 °F 42.4 °F 42.8 °F 87% 30.03 in 8.0 mi North 8.1 mph - N/A   Light Drizzle
1:00 AM 46.4 °F 42.4 °F 42.8 °F 87% 30.02 in 10.0 mi North 8.1 mph - N/A   Light Drizzle
1:45 AM 46.4 °F 42.4 °F 42.8 °F 87% 30.01 in 9.0 mi NNW 8.1 mph - N/A   Overcast
2:00 AM 46 °F - 43 °F 84% 30.01 in 12 mi NNW 9.2 mph - - Rain Light Drizzle
2:00 AM 46.4 °F 41.5 °F 42.8 °F 87% 30.01 in 12.0 mi NNW 10.4 mph - N/A   Overcast
2:09 AM 46.4 °F 42.4 °F 42.8 °F 87% 30.01 in 12.0 mi NNW 8.1 mph - N/A   Overcast
2:36 AM 44.6 °F 41.4 °F 42.8 °F 93% 29.99 in 3.0 mi North 5.8 mph - N/A   Light Drizzle
3:00 AM 44.6 °F 40.2 °F 42.8 °F 93% 29.99 in 3.0 mi North 8.1 mph - N/A   Light Drizzle
4:00 AM 44.6 °F 39.2 °F 42.8 °F 93% 29.98 in 5.0 mi North 10.4 mph - N/A   Light Drizzle
4:36 AM 44.6 °F 39.7 °F 41.0 °F 87% 29.97 in 6.0 mi North 9.2 mph - N/A   Light Drizzle
4:54 AM 44.6 °F 43.1 °F 42.8 °F 93% 29.96 in 9.0 mi NNE 3.5 mph - N/A   Overcast
5:00 AM 44 °F - 42 °F 90% 29.97 in 9 mi NNE 3.5 mph - -   Overcast
5:00 AM 44.6 °F 42.2 °F 42.8 °F 93% 29.96 in 9.0 mi NNE 4.6 mph - N/A   Overcast
5:51 AM 44.6 °F 41.4 °F 42.8 °F 93% 29.98 in 4.0 mi North 5.8 mph - N/A   Light Drizzle
6:00 AM 44.6 °F 40.7 °F 42.8 °F 93% 29.98 in 4.0 mi North 6.9 mph - N/A   Light Drizzle
6:18 AM 44.6 °F 39.2 °F 42.8 °F 93% 29.98 in 2.0 mi North 10.4 mph - N/A   Light Drizzle
6:41 AM 44.6 °F 40.2 °F 42.8 °F 93% 29.99 in 1.5 mi North 8.1 mph - N/A   Light Drizzle
7:00 AM 44.6 °F 41.4 °F 42.8 °F 93% 29.99 in 1.2 mi North 5.8 mph - N/A   Light Drizzle
8:00 AM 45 °F - 43 °F 91% 30.00 in 1 mi North 5.8 mph - - Rain Light Drizzle
8:00 AM 44.6 °F 41.4 °F 42.8 °F 93% 30.00 in 1.2 mi North 5.8 mph - N/A   Light Drizzle
9:00 AM 44.6 °F 42.2 °F 42.8 °F 93% 30.01 in 1.2 mi North 4.6 mph - N/A   Light Drizzle
9:52 AM 46.4 °F 44.3 °F 44.6 °F 93% 30.01 in 2.0 mi NNE 4.6 mph - N/A   Light Drizzle
10:00 AM 46.4 °F 45.2 °F 44.6 °F 93% 30.01 in 2.0 mi North 3.5 mph - N/A   Light Drizzle
11:00 AM 48 °F - 47 °F 93% 30.02 in 2 mi ENE 2.3 mph - -   Overcast
11:00 AM 48.2 °F - 46.4 °F 93% 30.02 in 2.5 mi Variable 2.3 mph - N/A   Light Drizzle
11:22 AM 48.2 °F - 46.4 °F 93% 30.00 in 4.0 mi ESE 5.8 mph - N/A Rain Light Rain
12:00 PM 48.2 °F - 46.4 °F 93% 30.01 in 6.0 mi SE 5.8 mph - N/A Rain Light Rain
12:19 PM 48.2 °F - 46.4 °F 93% 30.00 in 6.0 mi SE 3.5 mph - N/A   Overcast
1:00 PM 48.2 °F - 46.4 °F 93% 29.98 in 10.0 mi SSE 4.6 mph - N/A   Overcast
2:00 PM 49 °F - 47 °F 89% 29.99 in 12 mi SE 4.6 mph - -   Partly Cloudy
2:00 PM 48.2 °F - 46.4 °F 93% 29.98 in 12.0 mi SE 5.8 mph - N/A   Overcast
2:31 PM 50.0 °F - 48.2 °F 94% 29.98 in 12.0 mi Variable 2.3 mph - N/A   Overcast
3:00 PM 50.0 °F - 48.2 °F 94% 29.98 in 15.0 mi Variable 2.3 mph - N/A   Overcast
3:42 PM 51.8 °F - 48.2 °F 88% 29.96 in 12.0 mi South 4.6 mph - N/A   Mostly Cloudy
4:00 PM 53.6 °F - 50.0 °F 88% 29.96 in 12.0 mi South 2.3 mph - N/A   Mostly Cloudy
5:00 PM 54 °F - 48 °F 74% 29.94 in 15 mi North 1.2 mph - -  
5:00 PM 53.6 °F - 48.2 °F 82% 29.94 in 15.0 mi ESE 3.5 mph - N/A   Mostly Cloudy
6:00 PM 53.6 °F - 46.4 °F 77% 29.94 in 15.0 mi SSE 8.1 mph - N/A   Mostly Cloudy
7:00 PM 51.8 °F - 44.6 °F 76% 29.94 in 15.0 mi SSE 5.8 mph - N/A   Mostly Cloudy
8:00 PM 50.0 °F - 44.6 °F 82% 29.94 in 15.0 mi SE 4.6 mph - N/A   Mostly Cloudy
9:00 PM 48.2 °F - 42.8 °F 82% 29.94 in 15.0 mi SSE 3.5 mph - N/A   Mostly Cloudy
10:00 PM 48.2 °F - 42.8 °F 82% 29.94 in 15.0 mi Calm Calm - N/A   Mostly Cloudy
11:00 PM 48 °F - 43 °F 77% 29.94 in 15 mi SSE 2.3 mph - -  
11:00 PM 48.2 °F - 42.8 °F 82% 29.94 in 15.0 mi Variable 2.3 mph - N/A   Mostly Cloudy